RH
39 36 37 40 40 40 40 33 24 23 23 24 26 21 18 18 18 16 14 13 12 12 11 11 13 9 9 20 33 41 41 31 34 34 36 35 36 42 43 44 46 58 65
39 34 34 35 36 36 36 46 44 36 25 21 21 23 23 19 18 18 18 18 17 15 14 13 12 11 10 10 12 13 13 13 15 23 20 14 22 26 19 19 22 26 37
41 39 35 31 34 33 31 32 33 39 38 32 26 20 20 22 22 20 18 20 21 20 18 16 16 16 16 16 15 13 12 11 10 10 10 11 12 12 11 10 10 13 17
45 44 42 38 32 32 34 34 34 32 30 34 34 31 28 21 20 21 21 18 20 22 22 22 20 18 18 18 18 19 18 18 17 16 16 15 14 15 14 13 13 13 13
49 47 46 40 37 37 32 32 32 25 20 23 29 32 34 32 29 26 24 23 22 20 21 24 22 21 20 20 20 21 20 20 21 19 17 17 19 20 20 20 18 15 16
49 46 45 46 39 34 32 37 30 17 16 22 27 30 31 32 33 31 30 29 26 23 23 21 20 22 22 22 23 22 21 22 22 21 20 18 18 17 20 21 21 20 18
59 52 50 43 38 36 34 40 27 20 23 31 53 53 43 34 31 31 30 28 27 26 25 22 23 22 21 21 21 21 22 23 22 23 22 22 21 19 20 20 20 20 21
59 55 47 43 38 40 35 44 32 27 38 46 50 56 53 43 33 26 25 26 25 24 22 22 22 23 25 26 23 19 18 18 20 20 20 22 22 22 22 21 22 22 25
60 50 45 48 43 39 38 48 43 34 35 56 68 61 52 46 36 26 21 20 21 22 23 24 23 23 24 23 26 30 28 27 26 24 21 19 21 21 21 22 25 26 25
69 68 67 57 46 37 35 40 47 45 45 52 56 54 48 40 41 29 22 18 16 17 19 24 29 30 29 29 27 26 31 33 34 34 32 29 27 26 27 28 29 30 29
83 72 66 55 39 32 32 35 44 53 64 58 53 53 51 50 47 39 38 33 24 22 22 26 32 36 34 32 30 29 25 26 31 33 34 35 36 34 33 32 32 31 29
77 72 66 46 37 34 37 44 51 57 58 55 49 47 50 48 46 43 42 43 43 37 28 24 28 35 38 34 31 30 31 31 28 25 26 27 28 28 28 26 26 26 25
100 86 63 43 42 44 46 52 57 59 54 48 46 46 46 49 48 48 54 56 49 43 41 37 33 28 31 36 36 34 32 32 33 31 26 23 21 21 22 22 22 22 22
100 80 58 49 56 56 61 56 50 48 46 45 40 43 50 51 52 60 57 51 49 47 43 42 46 50 52 46 37 33 32 34 33 30 28 28 25 27 26 22 20 19 18
79 73 68 76 80 68 58 59 62 63 64 62 65 84 88 78 59 51 48 49 51 51 52 53 54 54 51 45 43 49 54 52 48 45 41 39 34 31 31 32 33 34 34
81 80 75 62 57 60 64 66 70 74 79 86 94 88 70 55 49 50 48 46 50 53 56 60 60 56 52 51 52 50 49 47 44 41 39 36 33 32 31 32 33 35 36
62 62 65 71 72 66 63 62 59 54 58 63 66 61 54 53 56 59 62 63 63 63 65 65 61 58 56 54 55 55 52 48 43 40 39 38 35 32 32 31 28 26 24
70 62 63 61 59 57 55 49 48 47 45 47 51 53 53 52 50 49 50 48 45 43 42 42 42 42 41 40 38 36 35 34 34 33 31 31 29 27 26 25 24 23 23
76 82 75 78 68 68 64 64 59 56 50 52 54 53 50 49 52 54 50 47 42 40 39 39 40 40 41 39 38 36 36 34 36 36 34 32 30 29 26 26 26 24 24
100 100 94 83 88 88 79 73 73 67 64 62 66 67 66 62 59 62 68 64 63 60 56 52 50 49 48 46 48 46 44 41 40 39 40 38 36 35 32 30 29 29 29
88 88 87 84 76 73 68 68 68 67 70 73 78 83 89 91 87 87 79 77 75 70 70 65 63 58 56 55 50 48 43 40 37 35 35 36 36 35 32 31 32 30 25
78 76 78 84 84 84 83 82 73 72 73 78 80 81 82 85 78 76 75 68 64 63 62 59 53 50 47 46 44 46 45 44 41 39 38 35 31 30 29 26 24 24 20
99 94 91 85 84 80 81 82 80 87 91 90 88 84 77 72 70 70 68 65 62 56 61 65 69 60 52 49 49 51 52 49 45 42 37 34 34 27 25 26 19 17 12
100 100 100 98 98 100 99 96 88 86 82 79 82 81 75 70 68 67 72 74 78 69 62 69 72 79 82 73 74 68 65 56 45 38 31 25 20 18 16 18 14 10 8
100 100 100 100 100 100 100 100 100 96 84 79 80 81 80 74 71 68 68 79 80 71 73 73 68 65 63 53 49 44 40 35 28 24 16 14 12 13 12 11 10 8 7
100 99 99 100 100 100 100 100 100 100 97 92 90 92 98 97 93 86 80 79 83 81 73 65 60 48 46 46 39 28 22 20 15 12 12 11 9 10 9 8 8 7 7
Wind_Speed
37 36 34 34 33 33 35 40 46 46 45 43 42 44 49 50 50 52 54 58 60 63 66 68 71 74 73 80 81 82 81 78 79 82 84 84 84 78 84 79 77 76 78
42 41 41 40 40 41 41 43 44 46 50 50 49 48 47 50 52 51 52 52 53 55 57 59 63 66 68 71 74 75 74 79 79 83 83 81 79 82 79 80 80 77 79
46 46 46 44 45 48 49 50 49 49 51 53 55 55 53 52 53 55 56 54 55 54 55 54 55 55 55 57 59 62 66 68 69 69 71 70 69 66 68 71 72 76 76
51 50 51 50 50 52 55 54 53 53 55 58 59 59 59 59 58 57 57 58 58 57 56 56 54 55 55 55 56 56 56 56 57 57 56 57 58 55 55 56 58 64 68
56 55 55 56 55 56 58 59 59 64 68 68 66 65 64 63 63 62 61 61 60 61 62 61 58 57 57 57 57 57 57 57 56 55 54 54 53 52 50 51 50 49 48
60 59 59 58 58 58 59 59 63 71 73 72 70 69 68 68 69 68 66 65 65 65 64 65 67 65 63 62 61 62 62 61 61 60 58 57 56 56 55 56 56 54 54
64 63 62 62 59 60 59 59 62 62 64 70 71 72 73 73 73 73 72 71 70 68 68 70 69 69 71 71 69 68 68 67 67 66 65 65 64 64 64 64 63 62 61
67 65 64 63 62 61 61 59 55 51 47 51 59 65 69 71 73 78 79 77 76 75 74 73 73 74 74 72 71 72 73 74 75 74 72 70 69 68 68 70 68 67 66
70 70 67 66 64 62 61 58 51 47 45 45 48 51 54 57 62 68 76 80 82 82 81 81 80 77 77 78 77 75 73 73 73 74 75 76 76 74 73 72 72 71 71
74 73 71 69 67 65 62 60 56 47 45 48 51 51 52 53 54 52 56 66 76 80 84 84 83 82 80 79 80 81 80 78 76 75 74 75 77 77 76 76 75 76 77
78 76 73 72 70 69 66 62 61 57 53 51 48 49 51 52 52 50 50 48 51 63 73 78 81 82 81 80 81 81 82 84 84 83 81 80 80 79 81 81 81 81 82
81 79 77 75 74 72 69 66 63 63 63 60 56 56 59 61 60 57 56 55 54 51 51 62 74 80 83 83 82 82 83 83 85 88 89 89 89 88 88 88 89 88 87
83 81 79 77 77 75 72 70 69 68 67 67 67 68 69 69 68 66 64 63 61 59 58 57 56 60 72 82 87 87 87 88 88 87 89 91 93 94 95 96 97 96 95
83 83 81 80 78 77 76 75 75 74 72 72 73 74 76 75 72 70 69 69 69 68 67 65 64 64 64 66 69 73 78 84 87 90 91 91 92 91 91 93 96 99 101
85 84 82 80 79 79 79 78 77 77 77 76 76 77 77 78 77 75 75 74 74 74 73 73 73 74 75 75 76 76 77 79 80 81 83 85 87 88 88 87 88 88 90
87 86 85 85 84 83 82 82 81 79 78 78 82 84 84 84 84 83 83 83 82 81 79 79 80 80 82 82 83 85 87 88 89 90 91 92 93 94 94 95 96 96 96
94 91 89 87 86 87 88 87 87 85 84 85 89 91 90 89 89 88 87 88 88 87 87 88 88 89 90 91 92 94 95 96 98 98 99 100 101 101 102 103 103 104 104
99 97 94 92 91 91 91 92 92 91 90 91 93 96 96 95 94 94 95 96 95 95 96 97 98 98 99 100 101 103 104 104 106 108 108 109 111 111 111 112 113 114 114
99 99 99 99 99 97 97 97 98 98 97 98 100 101 102 102 102 102 103 104 105 105 106 106 106 106 107 108 110 110 112 112 113 115 116 115 114 115 116 117 117 118 118
101 102 103 103 103 103 103 103 103 103 103 104 105 106 108 109 110 111 112 114 113 112 112 113 113 113 114 115 115 116 115 116 116 118 119 119 119 119 118 119 120 121 123
110 108 107 108 109 110 111 111 111 111 110 110 112 113 115 117 117 117 117 117 117 117 117 117 119 119 118 119 120 122 122 122 122 122 124 125 126 127 127 127 126 126 125
117 118 116 114 114 116 116 116 116 117 117 117 117 117 118 118 119 120 120 120 121 122 123 123 125 126 126 127 127 129 130 132 132 130 130 129 128 127 128 128 128 128 127
121 121 121 120 121 122 122 123 119 117 117 117 118 119 121 122 123 124 125 126 127 129 130 131 133 136 137 138 138 138 140 139 140 139 137 136 136 133 131 134 131 131 127
125 124 122 121 120 120 120 121 121 121 121 122 123 124 126 127 128 130 132 132 135 137 138 141 143 143 144 145 147 149 151 151 150 148 144 139 135 134 133 133 133 129 124
121 121 121 121 122 123 124 126 127 129 131 132 133 133 133 135 137 139 140 142 145 147 148 151 152 154 155 154 154 154 153 151 148 146 138 133 131 129 127 125 122 119 113
127 128 128 129 129 131 134 135 136 136 137 140 141 141 142 145 147 149 152 153 154 155 158 160 161 159 157 156 155 151 146 143 139 133 125 123 120 118 118 116 114 109 105
Wind_Direction
267 269 271 273 272 269 265 263 259 258 258 258 257 255 254 255 256 258 260 259 258 258 257 257 256 259 262 261 261 263 265 263 264 263 266 264 264 265 261 266 264 262 261
266 270 272 274 274 277 275 268 264 263 260 257 257 256 255 253 254 256 258 259 259 260 260 259 258 258 258 259 261 261 263 263 263 261 264 267 267 270 269 268 266 265 263
265 268 273 278 279 283 282 275 265 263 263 262 261 257 255 254 254 255 255 258 258 259 260 260 259 260 261 262 263 262 261 262 262 261 261 262 262 263 264 263 263 263 261
268 269 272 276 282 286 283 279 273 270 267 263 262 261 259 256 254 255 255 255 255 256 258 258 258 259 260 262 263 262 262 262 261 259 258 259 259 259 258 257 257 259 260
268 268 271 275 280 286 286 280 277 278 274 270 265 261 261 260 258 257 256 256 256 256 257 259 259 260 259 259 261 260 260 260 259 258 254 251 252 256 260 262 264 260 260
270 270 271 274 279 286 287 283 282 282 272 265 263 261 261 260 258 258 258 257 257 257 257 257 257 258 259 260 261 260 261 262 262 262 261 259 259 258 259 264 266 267 265
271 273 275 276 281 286 289 284 289 287 270 259 258 259 260 261 261 260 259 258 258 257 258 258 258 258 258 258 259 260 262 263 263 262 262 263 263 263 263 264 266 267 268
271 273 274 276 281 286 290 286 291 292 280 268 264 265 265 265 265 262 260 260 260 259 259 260 260 259 259 260 260 260 260 261 261 262 263 262 262 263 263 264 265 266 266
273 274 275 277 282 286 288 283 286 287 284 275 270 269 269 268 271 270 265 262 260 260 260 260 260 261 261 260 259 260 260 261 261 261 261 262 262 262 262 263 263 264 265
271 273 276 280 283 286 285 279 278 281 278 273 271 271 271 270 273 279 277 270 264 262 260 260 260 260 261 261 261 260 259 260 260 261 260 260 261 262 262 262 262 264 266
271 274 276 279 282 285 283 280 276 274 271 271 270 268 266 268 271 277 283 285 279 269 264 262 261 261 261 261 262 262 262 261 260 260 260 261 261 262 262 263 263 265 266
271 273 275 279 283 285 282 279 276 274 272 271 268 267 268 269 270 275 278 279 280 281 280 273 266 264 262 262 263 264 265 265 264 263 262 263 263 262 262 263 264 265 266
271 273 277 282 283 283 279 277 276 275 274 272 271 270 270 270 272 274 275 274 275 277 278 278 277 273 268 265 265 266 266 266 265 265 265 266 266 266 265 265 265 266 266
271 275 278 280 279 278 277 278 277 276 275 274 272 273 273 273 273 273 273 274 275 275 275 274 272 271 270 269 269 268 267 266 266 266 266 266 266 266 267 267 267 267 267
269 272 274 275 274 275 277 277 278 277 277 276 276 275 276 275 275 275 276 276 275 274 274 273 272 270 269 270 270 269 268 268 268 267 267 267 267 267 268 268 268 268 268
269 268 270 272 274 275 276 276 275 275 275 275 274 274 275 277 278 278 278 278 277 277 276 274 273 273 273 273 273 272 272 272 271 271 271 271 271 271 271 271 271 270 269
268 270 270 270 271 272 272 272 273 273 273 273 274 274 275 276 277 276 276 276 276 276 276 276 276 275 275 275 275 274 274 274 275 275 275 275 274 274 273 273 273 272 272
268 270 271 270 270 270 271 272 272 273 274 275 275 276 277 277 277 277 276 276 276 276 276 276 276 276 276 275 275 275 275 276 275 275 275 275 275 275 275 274 274 273 272
269 270 271 272 273 272 272 273 273 274 275 275 275 276 277 278 278 278 277 277 277 277 277 276 277 277 277 277 277 277 277 277 277 277 278 277 277 277 276 275 276 274 274
267 268 269 270 271 271 272 273 274 274 274 274 275 276 276 276 276 277 277 278 278 278 278 278 278 278 278 278 278 278 279 278 278 278 278 278 278 279 278 278 277 277 277
265 266 266 267 268 269 271 272 272 273 274 274 274 275 276 276 277 277 277 277 278 278 278 278 279 279 279 279 279 279 280 280 279 280 279 280 280 281 280 280 279 279 277
265 266 267 268 269 270 270 271 272 273 273 274 275 275 276 276 277 277 278 278 278 278 279 279 280 280 280 280 281 281 282 282 283 282 282 283 283 281 281 281 279 278 276
266 268 269 270 270 270 270 271 272 272 272 272 273 273 274 275 276 277 278 279 279 280 280 281 281 281 282 283 284 286 286 287 287 287 287 286 286 286 286 285 281 280 279
266 268 269 270 270 271 271 271 271 272 272 272 273 274 275 275 276 276 277 277 277 278 280 281 281 281 281 282 283 285 285 285 286 287 287 287 285 284 284 283 281 279 279
263 265 266 267 268 268 269 270 272 273 274 274 275 275 275 275 275 276 277 278 279 280 281 281 283 283 284 285 287 286 285 286 286 286 287 286 284 282 281 280 280 280 280
262 263 264 265 266 268 269 270 271 272 273 274 275 275 276 277 278 278 278 279 280 281 282 282 283 283 283 284 284 285 285 284 283 284 284 283 282 281 279 279 279 280 280